Regional Weather Roundup
Issued by NWS

Home | Current Version | Previous Version | Text Only | Print | Product List | Glossary On
Versions: 1 2 3 4 5 6 7 8 9 10 11 12 13 14 15 16 17 18 19 20 21 22 23 24 25 26 27 28 29 30 31 32 33 34 35 36 37 38 39 40 41 42 43 44 45 46 47 48 49 50
000
ASUS44 KJAN 301910
RWRMS

MISSISSIPPI HOURLY WEATHER ROUNDUP
NATIONAL WEATHER SERVICE JACKSON MS
200 PM CDT THU JUN 30 2016

NOTE: "FAIR: INDICATES FEW OR NO CLOUDS BELOW 12,000 FEET WITH NO
SIGNIFICANT WEATHER AND/OR OBSTRUCTIONS TO VISIBILITY.

MSZ001>002-007>008-010>013-018>021-025>028-034>036-302000-
NORTHWEST MISSISSIPPI

CITY           SKY/WX    TMP DP  RH WIND       PRES   REMARKS
CLEVELAND      FAIR      88  64  44 N5        30.00F
GREENWOOD      SUNNY     91  59  33 N7        29.99F HX  90
GREENVILLE     SUNNY     91  61  36 NE8       29.99F HX  91
OXFORD         FAIR      84  59  42 N8        30.04S
WINONA         FAIR      88  55  32 NE3       30.00F
$$

MSZ003>006-009-014>017-022>024-029>033-037>039-302000-
NORTHEAST MISSISSIPPI

CITY           SKY/WX    TMP DP  RH WIND       PRES   REMARKS
ABERDEEN       FAIR      91  73  55 N7        30.00F HX 100
COLUMBUS AFB   MOSUNNY   88  64  43 CALM      29.98F
GOLDN TRIANGLE SUNNY     90  54  29 N5        29.99F
STARKVILLE     FAIR      88  54  31 NW5       29.98F
TUPELO         SUNNY     86  53  32 NW9       30.00F
$$

MSZ040-058-302000-
CENTRAL MISSISSIPPI

CITY           SKY/WX    TMP DP  RH WIND       PRES   REMARKS
JACKSON INTL   SUNNY     91  64  40 N6        29.98F HX  92
JACKSON HAWKNS SUNNY     91  60  35 VRB6      29.98F HX  90
MADISON        FAIR      88  64  45 CALM      29.98F
MERIDIAN KEY   SUNNY     93  60  33 N10       29.97F HX  93
MERIDIAN NAS   MOSUNNY   93  51  23 N8        29.98F HX  90
VICKSBURG VKS  CLEAR     91  63  38 N6        29.98F HX  92
$$

MSZ059>079-302000-
SOUTH MISSISSIPPI

CITY           SKY/WX    TMP DP  RH WIND       PRES   REMARKS
BROOKHAVEN     FAIR     N/A N/A N/A N9        29.99F
COLUMBIA       FAIR      90  70  51 NE9       30.00S HX  95
HATTIESBURG    MOSUNNY   90  71  53 NE7       29.96F HX  96
MCCOMB         MOSUNNY   91  64  40 NE6       29.97F HX  92
NATCHEZ        NOT AVBL
PINE BELT      SUNNY     90  68  48 NE8       29.99S HX  93
$$

MSZ080>082-302000-
COASTAL MISSISSIPPI

CITY           SKY/WX    TMP DP  RH WIND       PRES   REMARKS
BAY ST LOUIS   MOSUNNY   88  70  55 SE5         N/A  HX  92
BILOXI         MOSUNNY   85  77  76 S9        29.95F HX  95
PASCAGOULA     PTSUNNY   88  74  63 SE8       29.95F HX  96
GULFPORT       MOSUNNY   87  75  67 SE12      29.94F HX  96
$$

LAZ007>009-015>016-023>026-302000-
NORTHEAST LOUISIANA

CITY           SKY/WX    TMP DP  RH WIND       PRES   REMARKS
BASTROP        FAIR      91  65  42 E5        30.00F HX  92
TALLULAH/VBURG SUNNY     92  64  39 VRB3      29.98F HX  93
VIDALIA        FAIR      90  69  48 NE10      30.00S HX  94
$$



USA.gov is the U.S. government's official web portal to all federal, state and local government web resources and services.